Time,TemperatureF,DewpointF,PressureIn,WindDirection,WindDirectionDegrees,WindSpeedMPH,WindSpeedGustMPH,Humidity,HourlyPrecipIn,Conditions,Clouds,dailyrainin,SoftwareType,DateUTC
2015-05-22 00:11:00,47.0,43.0,-100.00,SW,215,1.0,3.0,84,-99.99,,,-99.99,,2015-05-22 04:11:00,
2015-05-22 00:31:00,46.0,43.0,-100.00,SW,220,1.0,2.0,87,-99.99,,,-99.99,,2015-05-22 04:31:00,
2015-05-22 00:51:00,46.0,42.0,-100.00,SW,220,4.0,6.0,87,-99.99,,,-99.99,,2015-05-22 04:51:00,
2015-05-22 01:02:00,46.0,43.0,-100.00,SW,225,3.0,4.0,88,-99.99,,,-99.99,,2015-05-22 05:02:00,
2015-05-22 01:11:00,46.0,43.0,-100.00,SW,225,3.0,4.0,88,-99.99,,,-99.99,,2015-05-22 05:11:00,
2015-05-22 01:32:00,46.0,43.0,-100.00,SW,215,1.0,3.0,89,-99.99,,,-99.99,,2015-05-22 05:32:00,
2015-05-22 01:42:00,46.0,43.0,-100.00,SW,220,1.0,3.0,89,-99.99,,,-99.99,,2015-05-22 05:42:00,
2015-05-22 01:52:00,45.0,42.0,-100.00,SW,215,2.0,4.0,90,-99.99,,,-99.99,,2015-05-22 05:52:00,
2015-05-22 02:03:00,45.0,42.0,-100.00,SW,225,3.0,4.0,90,-99.99,,,-99.99,,2015-05-22 06:03:00,
2015-05-22 02:11:00,45.0,42.0,-100.00,SW,225,2.0,4.0,90,-99.99,,,-99.99,,2015-05-22 06:11:00,
2015-05-22 02:42:00,45.0,42.0,-100.00,SW,225,2.0,3.0,91,-99.99,,,-99.99,,2015-05-22 06:42:00,
2015-05-22 02:51:00,45.0,42.0,-100.00,SW,225,2.0,3.0,91,-99.99,,,-99.99,,2015-05-22 06:51:00,
2015-05-22 03:02:00,45.0,42.0,-100.00,SW,225,2.0,3.0,91,-99.99,,,-99.99,,2015-05-22 07:02:00,
2015-05-22 03:51:00,44.0,42.0,-100.00,SW,225,4.0,4.0,92,-99.99,,,-99.99,,2015-05-22 07:51:00,
2015-05-22 04:03:00,44.0,42.0,-100.00,SW,225,2.0,5.0,92,-99.99,,,-99.99,,2015-05-22 08:03:00,
2015-05-22 04:11:00,44.0,41.0,-100.00,SW,225,4.0,6.0,91,-99.99,,,-99.99,,2015-05-22 08:11:00,
2015-05-22 04:21:00,44.0,41.0,-100.00,SW,220,4.0,6.0,92,-99.99,,,-99.99,,2015-05-22 08:21:00,
2015-05-22 04:31:00,44.0,42.0,-100.00,SW,225,5.0,6.0,92,-99.99,,,-99.99,,2015-05-22 08:31:00,
2015-05-22 04:41:00,44.0,42.0,-100.00,SW,220,4.0,6.0,92,-99.99,,,-99.99,,2015-05-22 08:41:00,
2015-05-22 04:51:00,44.0,42.0,-100.00,SW,220,4.0,6.0,92,-99.99,,,-99.99,,2015-05-22 08:51:00,
2015-05-22 05:02:00,44.0,42.0,-100.00,SW,220,4.0,6.0,92,-99.99,,,-99.99,,2015-05-22 09:02:00,
2015-05-22 05:11:00,44.0,42.0,-100.00,SSW,210,4.0,6.0,92,-99.99,,,-99.99,,2015-05-22 09:11:00,
2015-05-22 05:41:00,44.0,42.0,-100.00,WSW,240,3.0,6.0,93,-99.99,,,-99.99,,2015-05-22 09:41:00,
2015-05-22 06:03:00,43.0,42.0,-100.00,SW,220,3.0,6.0,93,-99.99,,,-99.99,,2015-05-22 10:03:00,
2015-05-22 06:11:00,43.0,42.0,-100.00,SW,230,3.0,5.0,93,-99.99,,,-99.99,,2015-05-22 10:11:00,
2015-05-22 06:31:00,44.0,42.0,-100.00,SW,220,4.0,6.0,93,-99.99,,,-99.99,,2015-05-22 10:31:00,
2015-05-22 06:42:00,44.0,42.0,-100.00,SW,225,4.0,8.0,93,-99.99,,,-99.99,,2015-05-22 10:42:00,
2015-05-22 07:02:00,44.0,42.0,-100.00,SW,230,3.0,5.0,92,-99.99,,,-99.99,,2015-05-22 11:02:00,
2015-05-22 07:32:00,45.0,43.0,-100.00,SW,220,7.0,9.0,91,-99.99,,,-99.99,,2015-05-22 11:32:00,
2015-05-22 07:42:00,46.0,43.0,-100.00,SW,220,7.0,12.0,90,-99.99,,,-99.99,,2015-05-22 11:42:00,
2015-05-22 08:02:00,46.0,43.0,-100.00,SW,220,7.0,11.0,90,-99.99,,,-99.99,,2015-05-22 12:02:00,
2015-05-22 09:03:00,51.0,46.0,-100.00,SW,215,6.0,11.0,82,-99.99,,,-99.99,,2015-05-22 13:03:00,
2015-05-22 09:41:00,58.0,45.0,-100.00,SSW,210,2.0,8.0,62,-99.99,,,-99.99,,2015-05-22 13:41:00,
2015-05-22 09:51:00,59.0,45.0,-100.00,North,0,2.0,8.0,60,-99.99,,,-99.99,,2015-05-22 13:51:00,
2015-05-22 10:02:00,59.0,45.0,-100.00,South,190,3.0,7.0,59,-99.99,,,-99.99,,2015-05-22 14:02:00,
2015-05-22 10:11:00,60.0,45.0,-100.00,NNE,20,2.0,6.0,58,-99.99,,,-99.99,,2015-05-22 14:11:00,
2015-05-22 10:21:00,61.0,46.0,-100.00,SSW,200,2.0,6.0,56,-99.99,,,-99.99,,2015-05-22 14:21:00,
2015-05-22 10:31:00,62.0,46.0,-100.00,SSE,155,3.0,7.0,54,-99.99,,,-99.99,,2015-05-22 14:31:00,
2015-05-22 10:41:00,63.0,46.0,-100.00,NNE,25,3.0,6.0,53,-99.99,,,-99.99,,2015-05-22 14:41:00,
2015-05-22 10:52:00,64.0,46.0,-100.00,North,0,2.0,8.0,51,-99.99,,,-99.99,,2015-05-22 14:52:00,
2015-05-22 11:03:00,64.0,46.0,-100.00,North,0,2.0,6.0,51,-99.99,,,-99.99,,2015-05-22 15:03:00,
2015-05-22 11:52:00,68.0,47.0,-100.00,SW,230,3.0,7.0,46,-99.99,,,-99.99,,2015-05-22 15:52:00,
2015-05-22 12:02:00,69.0,47.0,-100.00,NNW,345,2.0,7.0,45,-99.99,,,-99.99,,2015-05-22 16:02:00,
2015-05-22 12:11:00,70.0,48.0,-100.00,NNE,30,3.0,9.0,45,-99.99,,,-99.99,,2015-05-22 16:11:00,
2015-05-22 12:31:00,68.0,46.0,-100.00,North,0,6.0,11.0,45,-99.99,,,-99.99,,2015-05-22 16:31:00,
2015-05-22 12:42:00,70.0,47.0,-100.00,North,10,4.0,11.0,43,-99.99,,,-99.99,,2015-05-22 16:42:00,
2015-05-22 12:52:00,71.0,47.0,-100.00,SSW,210,4.0,11.0,42,-99.99,,,-99.99,,2015-05-22 16:52:00,
2015-05-22 13:02:00,72.0,47.0,-100.00,NNW,345,3.0,8.0,40,-99.99,,,-99.99,,2015-05-22 17:02:00,
2015-05-22 13:22:00,72.0,47.0,-100.00,NNE,15,6.0,10.0,40,-99.99,,,-99.99,,2015-05-22 17:22:00,
2015-05-22 13:32:00,72.0,48.0,-100.00,NE,35,2.0,9.0,41,-99.99,,,-99.99,,2015-05-22 17:32:00,
2015-05-22 13:43:00,73.0,47.0,-100.00,SW,215,2.0,10.0,39,-99.99,,,-99.99,,2015-05-22 17:43:00,
2015-05-22 14:03:00,72.0,45.0,-100.00,North,5,6.0,12.0,37,-99.99,,,-99.99,,2015-05-22 18:03:00,
2015-05-22 14:22:00,73.0,46.0,-100.00,NNE,30,2.0,10.0,38,-99.99,,,-99.99,,2015-05-22 18:22:00,
2015-05-22 14:32:00,74.0,46.0,-100.00,SW,215,4.0,11.0,37,-99.99,,,-99.99,,2015-05-22 18:32:00,
2015-05-22 14:42:00,73.0,46.0,-100.00,SSW,205,3.0,11.0,37,-99.99,,,-99.99,,2015-05-22 18:42:00,
2015-05-22 14:52:00,73.0,45.0,-100.00,SW,220,6.0,11.0,36,-99.99,,,-99.99,,2015-05-22 18:52:00,
2015-05-22 15:42:00,76.0,47.0,-100.00,NNE,20,3.0,9.0,36,-99.99,,,-99.99,,2015-05-22 19:42:00,
2015-05-22 16:41:00,77.0,47.0,-100.00,North,0,5.0,12.0,35,-99.99,,,-99.99,,2015-05-22 20:41:00,
2015-05-22 16:51:00,78.0,48.0,-100.00,North,0,5.0,12.0,34,-99.99,,,-99.99,,2015-05-22 20:51:00,
2015-05-22 18:01:00,75.0,43.0,-100.00,North,10,7.0,12.0,31,-99.99,,,-99.99,,2015-05-22 22:01:00,
2015-05-22 18:31:00,74.0,45.0,-100.00,NNE,15,5.0,10.0,35,-99.99,,,-99.99,,2015-05-22 22:31:00,
2015-05-22 18:41:00,74.0,45.0,-100.00,NNE,20,4.0,8.0,35,-99.99,,,-99.99,,2015-05-22 22:41:00,
2015-05-22 18:51:00,75.0,45.0,-100.00,NNE,20,6.0,9.0,34,-99.99,,,-99.99,,2015-05-22 22:51:00,
2015-05-22 19:01:00,76.0,46.0,-100.00,NE,40,2.0,9.0,34,-99.99,,,-99.99,,2015-05-22 23:01:00,
2015-05-22 19:11:00,75.0,45.0,-100.00,North,355,5.0,10.0,35,-99.99,,,-99.99,,2015-05-22 23:11:00,
2015-05-22 19:31:00,73.0,45.0,-100.00,SW,235,1.0,11.0,36,-99.99,,,-99.99,,2015-05-22 23:31:00,
2015-05-22 19:51:00,73.0,45.0,-100.00,North,5,1.0,7.0,37,-99.99,,,-99.99,,2015-05-22 23:51:00,
2015-05-22 20:01:00,73.0,46.0,-100.00,North,0,1.0,6.0,37,-99.99,,,-99.99,,2015-05-23 00:01:00,
2015-05-22 20:11:00,73.0,45.0,-100.00,NNE,25,2.0,7.0,37,-99.99,,,-99.99,,2015-05-23 00:11:00,
2015-05-22 20:21:00,73.0,45.0,-100.00,NNE,20,2.0,6.0,37,-99.99,,,-99.99,,2015-05-23 00:21:00,